GFSSW_925_thetae_000.txt.gz
Theta_e
318 317 316 316 316 317 317 318 318 317 317 314 314 315 316 316 312 312 311 312 312 313 313 314 313 314 314 313 312 309 313 314 311 310 313 309 310 304 301 303 301 300 301 301 301
316 317 317 317 316 316 316 317 317 317 317 314 315 315 316 314 314 311 312 311 312 313 313 313 311 312 311 313 310 309 311 314 310 309 313 311 310 305 305 303 302 299 298 299 299
312 313 314 316 316 316 316 316 317 316 316 316 315 313 315 314 314 312 312 311 312 313 313 312 311 311 312 312 311 310 309 314 313 311 311 312 308 304 304 304 301 299 297 296 296
311 311 312 312 314 315 315 315 316 315 315 316 314 314 314 315 315 313 312 312 311 312 312 310 309 311 312 314 311 314 312 312 313 313 310 311 305 307 303 307 302 298 297 294 293
309 309 310 311 312 313 314 314 315 315 315 316 313 314 315 315 311 313 313 312 311 312 310 309 310 310 312 311 312 313 313 312 311 310 309 308 309 306 304 302 297 295 294 293 293
309 309 309 309 310 311 312 313 313 314 314 315 313 314 315 314 314 312 310 312 310 311 310 309 309 309 311 314 313 311 311 310 309 310 309 310 309 306 304 295 295 295 294 292 292
310 310 310 309 309 310 311 311 312 313 313 315 312 314 315 312 314 310 310 311 310 310 309 308 309 309 310 310 309 310 311 309 309 310 310 308 309 306 302 295 295 294 292 292 292
311 311 310 310 309 309 310 311 311 312 314 314 313 315 311 314 314 311 310 310 309 310 309 309 309 308 309 309 308 310 308 312 311 309 309 309 311 308 298 296 296 293 291 291 291
311 311 311 310 309 309 309 310 310 313 315 312 315 314 312 313 313 312 310 309 309 309 308 309 308 307 308 310 311 308 313 311 309 307 309 307 309 307 297 296 297 294 293 292 290
312 312 312 311 310 309 309 309 312 314 315 314 314 313 310 313 313 313 311 309 308 309 311 308 305 309 306 311 316 315 313 309 307 309 308 308 307 308 300 297 298 296 294 292 291
311 312 313 312 310 309 310 312 309 307 310 311 310 311 311 313 313 311 309 309 309 310 312 309 312 313 310 309 312 311 309 307 306 305 308 307 307 308 306 298 298 296 293 293 292
311 311 312 313 310 309 311 308 310 308 309 308 306 306 310 311 312 309 308 309 309 309 309 311 312 310 311 309 308 308 309 307 306 305 305 306 306 306 306 302 300 299 295 294 292
310 310 312 312 311 309 309 308 308 309 308 307 308 310 310 311 310 310 305 306 308 309 309 312 313 309 310 308 308 307 307 307 308 304 302 301 304 302 303 302 301 299 298 295 293
310 310 312 312 309 309 309 307 309 309 302 304 309 311 310 308 311 305 305 306 308 308 308 311 309 308 307 308 306 310 305 306 306 304 306 304 311 304 305 304 301 301 296 295 292
311 310 311 313 313 308 309 307 308 304 303 305 309 308 306 309 307 307 304 306 308 310 310 313 307 307 308 308 305 308 304 304 304 304 301 303 302 302 299 303 304 302 299 296 292
312 310 311 311 312 310 308 306 307 305 308 305 311 310 310 309 307 306 306 304 305 309 307 308 305 304 307 304 304 303 305 301 297 299 305 305 304 304 301 302 302 300 297 295 290
313 311 310 311 311 307 306 306 309 307 305 306 311 309 309 309 309 308 306 306 309 312 311 310 306 304 305 307 306 304 306 311 309 305 311 300 300 307 303 300 301 301 296 293 289
313 312 310 311 312 312 305 308 312 307 304 308 311 310 311 308 308 308 308 309 306 310 309 313 313 305 303 306 307 303 306 311 308 308 309 298 307 308 301 299 293 291 290 291 288
314 312 312 310 311 307 302 309 308 309 305 309 310 312 311 309 310 308 307 308 308 308 315 313 312 303 304 302 304 305 306 305 306 288 300 309 304 303 301 298 294 291 292 291 288
314 313 312 310 311 307 300 310 308 308 306 310 307 308 309 310 309 308 308 307 310 307 310 312 315 304 300 301 298 301 301 305 304 308 302 307 307 309 309 303 301 293 292 290 287
313 313 311 311 311 308 314 308 306 308 308 309 308 306 308 310 309 307 310 308 307 307 307 308 312 307 301 302 303 299 302 300 302 304 308 305 310 305 307 305 304 297 293 290 288
314 315 308 310 313 313 313 308 308 307 307 310 309 308 307 310 311 308 309 310 305 304 308 306 308 312 309 299 296 301 302 303 308 307 302 304 312 302 304 303 299 296 293 289 288
314 312 305 308 315 314 308 308 309 309 307 309 310 309 309 310 312 309 309 307 304 307 307 305 309 314 311 304 300 298 301 301 301 301 305 308 311 298 298 297 293 294 292 288 286
312 313 308 307 310 310 311 311 311 309 309 308 308 308 310 310 309 310 308 307 304 307 309 309 309 310 311 309 304 302 300 301 305 308 310 309 310 309 308 308 307 299 290 288 287
312 312 310 310 311 312 310 309 309 309 308 308 309 309 309 311 310 311 309 308 303 305 306 307 312 310 310 309 302 303 303 303 302 305 308 309 309 309 308 308 308 307 301 289 286
317 313 309 310 310 311 312 313 311 309 309 310 310 308 310 311 309 308 310 309 311 300 302 301 311 310 311 309 306 308 309 309 302 303 303 306 307 308 308 308 307 306 301 291 287
316 310 311 310 310 311 311 311 312 311 310 308 309 310 310 309 309 309 307 307 309 308 302 300 305 302 312 306 305 308 309 310 310 309 306 306 307 307 307 307 306 304 295 292 288

GFSSW_925_thetae_003.txt.gz
Theta_e
314 314 315 316 315 315 315 316 316 315 315 313 314 315 316 315 312 312 311 312 312 313 313 313 312 313 314 312 311 308 314 314 313 311 313 307 310 304 301 304 303 303 302 301 302
311 311 312 312 314 314 314 315 315 315 314 315 313 314 315 314 315 311 312 312 312 313 313 312 311 312 311 312 310 309 311 314 310 308 312 309 309 307 306 304 304 301 298 298 299
309 310 310 311 311 312 313 313 314 314 314 314 313 314 313 315 314 311 312 311 312 313 313 312 311 310 312 311 311 309 310 312 312 310 310 310 308 303 306 307 306 306 300 297 297
309 309 309 309 310 311 311 312 312 313 313 313 314 314 313 315 315 313 312 311 312 312 312 310 309 311 311 313 310 313 311 311 312 312 310 311 305 306 304 309 303 302 299 297 297
309 309 309 309 309 309 310 311 311 312 312 313 314 314 315 314 312 313 313 312 311 312 310 309 310 310 314 310 311 312 311 312 310 309 309 306 308 308 304 303 300 298 297 297 297
310 310 309 309 309 309 309 309 310 310 311 313 314 313 314 314 313 313 311 311 310 310 309 308 309 308 310 313 312 310 311 310 308 309 309 310 308 308 306 297 298 296 297 296 296
310 310 310 310 309 309 308 308 309 309 310 313 313 314 313 311 313 311 310 310 310 309 308 308 309 309 308 309 308 309 311 309 308 309 309 307 309 307 305 297 298 296 295 295 295
310 310 310 310 310 309 308 308 308 308 310 314 313 314 311 314 314 311 310 309 309 309 309 308 308 307 308 307 307 310 308 312 310 309 309 309 313 309 300 298 300 296 294 294 294
309 309 309 310 310 309 308 308 308 310 314 312 314 313 311 313 312 312 309 308 308 308 308 308 307 306 307 310 311 309 314 311 310 307 309 308 311 308 300 297 300 296 295 294 294
309 309 307 308 309 309 308 307 309 313 314 314 313 312 309 312 312 312 310 308 307 308 309 307 305 308 306 311 312 311 313 310 310 309 307 308 308 309 305 299 302 299 296 294 293
310 309 308 306 309 309 308 308 308 305 310 311 310 309 310 312 312 310 308 308 307 308 309 308 311 311 309 309 311 311 311 311 308 305 307 307 308 308 308 301 302 299 296 295 294
310 309 309 308 311 309 309 308 310 307 308 308 305 305 307 311 311 309 307 308 308 309 308 309 311 309 309 307 309 308 309 308 306 305 304 305 307 307 307 307 307 303 298 296 295
310 310 309 309 312 309 308 308 309 309 309 307 306 308 309 309 308 308 305 305 307 306 307 309 310 307 309 308 308 307 308 308 309 304 302 301 305 303 303 303 302 301 300 297 296
311 311 309 310 310 311 308 307 309 307 302 304 306 309 310 308 308 303 304 305 306 307 306 309 307 309 308 309 307 310 305 307 306 306 309 303 311 305 305 305 303 302 299 299 295
312 311 310 311 311 309 308 308 308 302 302 305 306 306 306 309 306 306 303 305 306 306 308 310 306 307 309 309 305 309 303 304 304 304 302 303 304 307 300 304 306 305 300 299 296
313 312 311 310 311 310 307 307 306 304 307 305 310 309 310 308 306 305 305 303 304 308 307 308 304 305 308 303 304 302 303 301 297 300 306 307 307 306 303 304 305 303 301 299 295
314 313 311 310 310 311 307 305 307 303 304 304 309 309 310 309 309 306 306 305 307 310 310 309 306 304 304 307 305 304 307 311 309 306 311 299 302 308 304 302 304 305 302 297 295
315 314 312 310 310 312 305 308 308 304 303 308 309 309 310 307 308 307 306 307 304 308 308 311 312 304 303 308 309 304 307 312 310 308 308 297 306 308 302 303 299 297 295 292 292
316 313 312 311 310 310 304 310 304 306 305 306 309 311 309 309 308 307 306 306 307 307 312 310 311 303 303 302 305 304 306 306 305 289 304 308 306 304 303 301 298 295 292 293 292
314 312 312 312 310 307 304 307 305 306 304 307 306 307 306 308 306 307 306 305 308 306 309 311 313 304 300 300 298 302 301 307 306 310 306 308 308 309 306 306 303 300 297 296 293
315 315 313 312 310 309 307 305 305 307 305 307 305 304 305 306 307 306 307 306 306 307 307 309 313 307 302 303 303 301 303 302 304 306 308 306 309 304 306 305 304 303 298 296 295
314 316 307 310 313 313 312 307 307 307 305 307 306 304 303 306 307 306 307 308 305 305 308 307 310 314 305 300 298 301 304 305 308 308 303 305 310 305 306 304 303 303 299 296 293
316 313 306 310 314 314 309 309 309 309 307 309 309 308 305 305 308 307 306 305 304 307 308 307 310 313 313 304 300 301 300 302 302 302 309 308 310 305 303 302 300 300 296 295 293
313 312 308 307 311 313 313 312 312 308 309 307 308 307 309 309 307 309 307 306 304 307 310 309 310 314 311 308 304 303 300 302 304 309 309 308 309 308 308 306 304 300 294 295 292
315 312 307 309 310 313 312 311 313 312 308 307 309 309 309 310 309 310 308 307 304 304 306 308 313 312 312 310 305 304 305 304 304 306 308 309 308 308 308 308 307 307 306 301 292
318 309 309 309 310 311 313 313 312 312 309 311 310 310 309 310 310 309 309 309 312 304 305 304 312 310 313 310 306 308 307 309 306 306 304 305 306 307 307 307 306 306 306 305 302
315 311 309 309 310 311 311 311 313 312 311 309 311 311 310 309 310 310 309 309 310 310 309 305 308 311 314 311 306 309 310 310 309 308 308 309 307 306 306 306 305 305 305 305 303

GFSSW_925_thetae_006.txt.gz
Theta_e
311 311 311 312 312 313 314 314 314 314 314 315 313 314 315 314 313 312 313 313 313 313 313 313 313 313 316 318 317 316 321 321 320 318 319 313 315 311 308 312 310 310 310 307 306
309 309 310 310 310 311 312 312 313 313 313 313 313 314 314 315 314 312 312 312 312 313 312 314 315 315 319 318 316 318 320 320 317 316 317 315 314 315 312 312 312 310 307 302 303
308 308 308 308 309 309 310 311 311 311 312 312 314 314 313 314 316 315 312 311 312 312 312 312 313 315 318 317 317 316 321 316 316 315 314 315 313 313 314 316 315 316 314 304 303
309 309 309 309 309 308 308 309 309 310 311 311 314 313 313 314 318 312 312 311 311 311 312 311 315 318 319 319 315 318 314 315 316 314 314 314 312 313 313 317 312 312 311 306 305
310 310 311 310 310 310 309 308 308 309 310 310 313 313 314 316 317 313 312 311 311 311 311 313 317 317 321 316 315 317 315 314 315 313 313 310 314 314 313 313 312 307 306 306 306
310 310 310 311 311 310 310 309 308 308 308 309 313 313 314 315 313 313 312 311 310 310 310 311 315 314 316 317 317 314 314 315 313 313 313 314 315 310 314 308 310 307 308 307 306
310 310 310 310 310 310 310 309 308 308 307 310 313 313 314 315 313 312 310 310 310 310 312 309 311 314 315 315 312 312 316 316 314 313 314 311 315 314 316 306 309 307 308 307 306
311 309 309 309 309 309 309 308 308 307 308 312 312 314 316 313 313 311 309 309 309 309 309 308 309 312 313 311 312 315 314 319 315 313 312 313 317 317 313 309 312 311 308 305 305
311 310 309 307 307 307 307 307 307 308 312 313 313 314 316 313 312 312 309 309 308 308 309 309 310 313 312 317 318 317 319 318 316 313 313 314 317 316 311 308 311 312 311 306 304
310 309 309 307 304 305 305 306 307 312 314 313 313 316 312 314 311 311 308 308 309 311 312 313 314 317 315 318 316 318 318 317 317 314 311 314 314 315 314 311 312 313 313 308 304
310 310 309 308 304 307 307 307 311 311 311 315 314 314 310 311 312 310 307 308 310 311 313 313 316 317 317 317 316 315 316 318 318 311 312 314 314 313 314 313 313 313 313 310 305
310 310 310 310 309 309 308 310 311 308 310 309 308 308 308 311 312 311 308 312 312 314 312 314 315 317 313 313 314 315 317 319 317 309 309 312 312 312 312 313 313 313 314 312 306
311 310 310 310 310 309 307 308 309 309 313 312 310 310 310 310 312 312 308 310 313 313 313 315 315 310 312 313 314 315 317 318 316 311 308 308 312 311 310 308 309 310 310 310 307
312 311 311 311 309 310 308 307 309 307 311 310 308 310 310 310 310 304 305 309 310 313 312 314 312 312 313 315 315 318 314 313 312 313 317 308 315 314 312 310 310 313 311 307 306
313 312 311 310 310 311 307 308 309 302 312 308 307 306 308 311 308 307 303 306 312 310 312 315 311 312 314 315 313 316 308 310 309 312 309 314 312 313 306 310 311 313 313 309 308
314 313 312 310 310 310 308 308 305 308 308 308 310 310 312 310 308 305 306 305 306 310 310 313 306 310 313 305 307 304 308 308 305 308 315 314 313 312 312 311 311 312 311 309 306
315 314 313 311 311 310 309 307 310 307 305 307 311 311 312 312 311 308 308 308 312 314 314 312 311 307 306 311 306 308 314 318 322 319 319 308 309 312 311 311 311 313 313 307 306
317 314 314 311 311 310 306 311 309 311 310 308 310 311 313 312 312 310 309 312 309 309 313 315 315 309 307 314 316 310 315 321 326 319 318 305 311 313 310 310 310 306 306 303 303
319 315 313 312 310 310 307 311 309 310 310 308 310 312 312 312 310 311 312 313 313 310 315 314 315 305 304 305 310 309 313 312 318 305 314 314 315 312 309 308 306 306 305 305 303
316 314 313 314 310 309 309 310 309 308 306 309 310 311 310 311 310 311 311 311 312 309 312 313 314 308 302 303 302 306 307 312 313 322 320 314 314 313 312 311 309 306 306 307 304
317 315 314 313 309 310 312 310 309 307 307 309 310 310 309 310 311 310 311 311 311 309 310 312 314 310 305 307 310 305 309 307 308 314 317 316 314 309 310 310 310 309 310 309 306
316 318 310 310 312 311 312 310 307 308 306 308 308 309 309 308 309 310 310 310 310 308 310 311 314 316 313 303 302 307 310 310 313 315 311 313 314 309 309 310 309 310 308 307 305
317 314 307 310 316 312 312 313 310 311 309 309 309 310 308 308 308 309 310 309 308 310 311 309 313 318 315 306 301 306 306 307 310 312 314 316 314 310 311 309 307 309 309 306 305
316 314 308 308 312 314 314 315 314 310 311 308 308 309 309 311 309 309 310 308 307 309 311 311 314 316 314 312 307 309 308 307 309 312 313 313 312 312 311 310 310 309 304 305 306
316 313 307 307 308 312 313 315 317 315 311 310 310 310 311 312 311 312 312 311 305 307 308 310 314 315 315 314 314 313 311 309 308 309 311 312 312 311 311 311 311 310 309 308 308
315 310 307 310 309 310 311 314 315 316 315 314 313 314 310 311 313 318 314 311 311 308 311 307 314 313 314 313 312 313 312 313 312 312 311 309 309 309 309 309 309 309 308 307 307
307 310 309 307 308 309 310 311 313 313 314 314 314 313 313 313 311 311 311 312 312 312 312 309 312 315 317 314 314 315 313 313 313 312 312 313 311 311 310 310 310 310 308 307 306

GFSSW_925_thetae_009.txt.gz
Theta_e
309 309 310 310 310 310 311 312 312 312 313 313 313 314 314 314 314 313 316 315 314 313 313 315 315 317 319 321 320 321 322 324 323 321 322 318 318 316 314 317 315 315 316 312 312
308 308 308 308 308 308 309 310 310 311 311 312 314 313 313 314 317 316 314 313 313 313 314 316 318 318 321 321 320 321 324 323 321 320 320 319 318 319 315 316 316 315 314 308 309
310 310 310 310 309 309 309 308 308 309 310 310 312 313 313 313 318 318 315 312 312 313 314 315 316 319 321 321 321 322 322 321 320 318 317 318 317 317 316 318 319 318 317 310 309
310 310 311 311 311 310 310 309 309 308 308 309 310 313 313 317 320 315 312 311 311 312 313 315 317 319 322 322 320 321 321 319 319 317 317 317 317 317 316 318 316 317 317 313 310
310 310 310 310 311 311 310 310 309 308 308 308 309 313 315 318 318 313 312 311 311 312 314 317 319 321 321 321 319 320 320 318 317 317 316 317 316 317 318 318 317 315 312 313 311
311 310 310 310 310 310 310 310 309 308 308 307 309 313 317 316 313 313 312 311 311 312 314 315 318 318 319 318 320 319 318 318 318 318 317 316 317 315 318 317 317 317 313 312 312
312 311 310 309 309 309 309 309 308 308 307 308 311 313 316 315 312 312 311 310 310 312 314 313 315 318 319 319 317 316 317 319 319 317 316 315 317 317 317 315 315 315 314 313 312
312 311 310 309 309 308 309 308 306 306 307 310 312 315 316 313 313 311 310 310 309 310 312 311 312 317 317 315 316 317 318 319 320 317 316 316 317 317 317 316 315 316 316 313 312
311 310 310 309 308 307 308 306 305 306 309 313 315 317 315 313 314 312 311 312 311 311 310 310 314 317 316 318 319 320 320 320 321 317 317 316 317 317 317 315 315 315 315 315 313
311 310 310 309 307 306 307 305 305 311 314 313 313 317 314 315 314 312 308 311 312 313 314 315 316 317 318 318 319 318 318 319 320 319 316 317 316 316 316 316 316 315 315 315 316
311 310 310 310 309 306 306 306 314 315 313 316 317 317 312 313 312 312 309 310 312 313 316 316 317 317 318 318 319 318 318 317 317 318 316 317 317 317 317 317 317 316 316 315 315
312 311 310 310 310 309 308 310 315 311 310 311 312 312 312 314 315 314 309 313 314 315 316 316 316 317 316 316 317 317 318 317 318 318 314 316 316 316 317 317 316 315 315 315 315
313 312 311 311 311 311 310 311 309 310 312 311 313 312 312 311 313 315 311 314 315 315 316 317 316 314 316 317 317 316 317 318 318 319 314 314 316 316 316 314 314 313 313 313 314
314 313 312 311 313 312 312 307 308 308 311 312 310 312 312 312 311 308 310 313 314 314 315 316 316 316 315 315 315 317 317 318 318 318 319 314 318 317 316 316 314 313 313 314 312
316 314 312 312 312 313 308 307 309 307 315 311 309 308 311 312 310 308 305 308 312 313 314 314 316 314 315 315 316 317 312 315 316 317 319 317 318 317 311 313 313 313 315 316 314
317 315 313 313 312 312 309 307 309 311 314 310 310 311 313 312 310 307 308 308 309 312 312 313 310 313 315 310 312 310 312 312 312 315 319 317 318 317 316 313 313 314 314 315 312
319 317 314 313 314 310 310 311 311 311 310 314 313 312 312 315 313 310 309 309 313 314 315 316 314 312 310 313 310 311 316 318 323 323 322 317 316 317 316 313 313 313 314 314 311
321 319 315 313 312 312 309 312 312 312 314 311 311 313 314 314 314 312 313 313 311 313 315 316 317 314 310 314 317 313 316 321 326 320 320 313 317 315 315 314 312 312 311 311 310
322 318 315 313 313 311 311 313 316 315 313 313 313 312 313 313 313 314 314 315 315 313 314 314 315 309 310 310 314 314 314 315 321 321 321 316 317 317 315 313 312 311 310 310 309
318 316 316 313 314 310 311 315 321 315 313 311 313 313 313 313 313 312 313 314 314 314 313 314 315 314 305 305 307 310 311 315 316 324 321 317 318 317 315 313 312 311 311 312 310
316 317 315 313 310 311 312 313 319 317 313 309 310 312 313 313 313 313 313 314 314 314 313 313 315 313 307 309 312 309 311 310 310 317 319 318 316 312 314 313 313 313 312 313 312
316 319 311 311 312 310 311 313 314 317 311 309 309 309 311 312 312 312 313 313 312 312 312 312 315 316 314 312 309 311 312 313 315 315 314 315 316 313 313 312 311 311 312 312 312
317 315 308 311 317 312 312 315 315 317 316 309 310 310 310 311 310 310 311 312 312 312 312 311 314 317 315 311 306 309 311 311 313 313 315 318 316 313 313 313 312 311 311 311 309
316 316 309 308 312 316 312 315 316 315 315 314 311 311 312 313 312 314 314 313 308 310 311 311 317 315 315 315 313 312 311 311 311 314 314 314 314 313 313 313 313 312 312 312 310
312 317 310 311 311 313 315 314 317 316 315 314 314 314 314 316 316 315 314 313 311 309 311 311 314 314 314 314 314 312 313 313 311 311 312 312 312 312 312 312 313 313 312 310 310
308 314 308 311 313 311 312 315 316 316 316 317 316 316 315 315 316 319 317 315 315 312 311 311 315 314 315 314 313 313 312 313 313 313 313 313 313 312 311 311 311 311 311 310 310
301 300 299 305 310 312 314 314 314 315 315 316 317 316 316 314 313 314 314 314 316 313 311 310 313 315 316 315 315 316 315 314 313 313 314 315 314 314 314 313 313 313 312 311 310

GFSSW_925_thetae_015.txt.gz
Theta_e
310 310 310 310 310 310 310 309 308 308 308 308 309 312 312 313 313 314 314 315 317 316 314 316 316 316 316 317 318 317 315 316 319 320 319 315 316 314 312 314 314 313 313 312 311
310 310 310 310 311 311 311 310 310 309 308 308 307 309 312 312 313 315 315 315 315 313 315 315 315 314 314 318 317 317 317 319 319 317 317 315 314 313 314 313 313 313 308 310 309
311 310 310 310 310 310 310 310 310 309 309 308 307 307 312 312 319 317 317 316 314 313 315 315 316 316 316 317 317 316 315 317 318 317 315 316 315 313 312 312 310 311 309 307 305
312 311 311 310 310 310 310 310 310 309 309 308 307 307 311 315 309 317 315 314 312 312 314 315 315 317 316 317 317 319 316 317 317 316 316 315 313 315 311 313 312 309 309 307 305
313 312 311 311 310 310 310 310 310 309 308 307 307 307 312 317 315 315 313 312 311 313 314 314 315 316 317 318 318 318 316 316 315 314 314 314 313 313 312 310 309 309 308 307 306
311 310 310 309 311 311 311 310 310 309 308 307 306 307 312 313 313 315 313 311 311 312 313 313 314 314 315 316 316 315 315 314 313 314 313 315 313 314 312 311 310 310 308 306 306
314 313 313 311 306 307 310 311 311 310 309 307 306 310 317 311 313 313 312 311 312 312 312 313 314 314 315 317 315 314 315 312 313 313 314 313 313 313 313 312 311 310 309 307 306
314 314 314 313 309 306 305 305 308 309 308 307 309 314 310 313 312 312 311 311 311 311 312 313 313 313 315 314 313 314 314 314 313 313 314 313 314 312 311 309 310 309 307 307 306
314 314 314 313 312 310 307 306 305 305 307 309 312 317 313 313 312 313 312 311 310 311 311 311 313 312 314 311 311 312 311 313 314 313 312 312 314 312 310 309 310 308 307 307 307
315 315 314 314 313 310 308 307 306 308 314 314 317 314 312 312 314 312 311 311 311 311 311 311 311 310 311 310 311 311 313 313 313 313 313 312 313 312 310 311 309 307 305 306 309
316 315 315 314 314 311 311 309 308 311 315 310 311 311 313 313 313 311 310 311 311 312 310 311 310 311 311 312 311 311 311 311 313 313 314 315 313 313 312 309 308 310 310 310 309
317 316 316 315 314 313 312 311 310 310 307 308 306 311 313 313 313 312 310 310 310 311 311 313 312 311 311 311 312 311 312 312 312 310 311 311 313 312 311 312 312 310 311 311 311
318 317 316 317 314 314 313 310 308 311 311 310 308 307 308 313 312 312 308 309 310 311 311 312 312 313 313 313 313 312 312 312 312 312 310 310 311 312 311 311 312 312 311 311 311
320 318 317 317 315 314 312 310 309 310 306 309 308 311 310 311 309 308 309 310 310 311 310 311 312 312 312 312 312 313 311 311 312 312 313 310 314 311 311 311 310 311 311 309 305
322 320 318 316 315 313 313 310 308 309 307 310 309 310 310 307 307 308 306 309 310 311 310 311 312 310 312 312 310 313 312 312 313 313 313 314 314 314 310 310 310 311 310 309 306
323 322 319 316 314 317 314 308 310 305 308 310 309 310 310 310 309 307 307 306 307 309 308 308 309 311 311 310 310 310 311 311 310 309 314 312 313 312 309 311 310 310 309 309 306
323 322 319 318 315 314 309 311 312 308 308 312 310 310 310 311 310 307 307 307 307 309 307 308 309 308 309 311 309 310 311 312 312 312 315 309 311 313 311 309 309 310 309 308 304
320 321 319 319 317 313 310 314 321 319 311 311 311 310 311 311 311 309 309 308 305 308 309 310 310 308 308 310 310 309 311 313 310 313 314 308 311 311 310 309 308 307 308 305 305
317 318 316 320 316 314 313 318 325 321 320 320 322 313 311 311 309 310 307 308 307 306 309 310 310 309 308 309 310 310 311 310 313 297 309 313 310 310 309 308 307 306 305 305 304
314 317 316 318 316 311 313 323 321 319 321 320 324 323 323 315 310 312 310 309 310 307 309 310 311 310 307 307 307 309 308 312 311 311 309 313 310 312 311 312 311 306 304 304 304
313 316 316 316 312 312 315 316 316 316 317 321 322 324 322 323 321 315 312 311 310 309 309 309 311 312 305 307 309 307 309 309 310 311 315 314 313 307 309 310 310 306 304 303 303
312 316 313 313 315 314 318 316 314 316 315 318 312 318 320 320 321 321 322 318 310 310 313 311 312 314 311 307 306 308 310 310 312 313 310 312 313 312 308 306 307 306 305 305 305
312 313 310 312 318 318 312 314 314 315 316 316 317 316 317 318 318 317 317 314 315 315 315 314 313 318 316 312 306 308 307 308 309 310 313 315 315 312 311 310 306 304 303 304 304
306 311 310 309 313 316 316 316 316 312 314 314 316 315 317 317 317 319 318 315 313 314 313 313 313 316 319 316 313 313 311 309 311 313 314 314 313 311 311 311 310 310 310 310 310
301 305 307 309 312 313 314 314 315 316 314 313 315 315 316 318 318 318 316 316 314 312 313 314 314 314 315 315 315 315 315 314 314 313 316 315 314 312 310 310 310 309 309 309 308
300 301 302 302 304 308 311 312 313 313 312 313 314 314 314 316 316 316 314 314 315 311 313 312 316 316 316 314 314 315 314 314 314 314 314 313 314 314 313 313 313 312 311 310 308
297 299 300 299 299 301 302 305 307 306 305 306 305 305 305 306 307 304 305 306 308 314 315 314 313 316 318 315 314 315 315 315 314 313 313 314 312 312 312 312 313 312 311 310 310

GFSSW_925_thetae_021.txt.gz
Theta_e
310 310 310 310 310 310 310 310 309 309 309 308 307 307 307 310 311 312 313 314 315 314 314 313 315 316 314 315 314 309 310 312 313 315 317 314 314 312 311 312 311 310 311 309 310
310 310 310 310 310 310 310 309 309 309 309 308 308 307 307 310 311 313 311 314 314 314 315 315 313 313 312 315 314 313 308 309 310 314 315 314 313 313 313 312 311 311 309 308 308
311 311 311 311 311 310 310 310 310 310 309 308 307 307 306 309 313 310 316 313 315 315 314 314 314 313 314 314 315 313 313 312 314 313 314 314 312 311 311 311 309 310 309 305 304
312 310 309 310 310 310 310 311 311 310 310 310 308 307 306 311 308 314 315 315 315 313 314 314 312 314 314 315 314 316 313 312 314 315 314 313 312 312 309 314 311 308 309 304 303
314 313 312 312 310 308 307 308 310 311 311 310 309 308 307 312 310 311 314 315 314 312 313 310 312 313 314 312 314 315 315 314 312 313 312 311 311 311 310 310 307 307 306 305 304
315 314 314 314 314 312 310 308 306 306 309 310 310 307 311 307 310 311 314 313 312 312 312 311 311 311 313 314 314 313 313 312 311 312 312 314 313 311 312 310 308 307 306 304 304
315 315 315 315 315 315 313 310 309 307 305 305 308 307 313 307 311 312 313 311 311 312 310 311 312 313 312 312 312 312 312 310 309 311 311 310 312 310 312 310 309 307 307 305 304
315 315 316 316 316 317 313 310 309 309 308 305 305 311 306 310 311 311 311 310 310 311 311 312 312 312 313 310 309 311 310 311 310 309 310 310 311 311 309 309 309 308 305 304 305
316 316 317 317 317 317 311 310 310 309 308 306 310 313 309 311 311 311 311 310 310 310 310 312 311 310 311 309 308 307 309 308 309 308 311 310 311 311 310 308 308 307 306 306 304
317 317 317 318 318 316 315 310 310 311 313 314 316 309 306 310 312 311 310 310 309 308 308 310 306 308 307 307 310 308 308 308 309 310 310 311 310 310 311 308 307 307 307 307 307
319 319 319 319 319 317 313 311 306 306 314 308 310 307 309 311 312 309 309 310 309 308 307 308 307 308 309 308 309 308 307 308 308 309 311 310 311 311 311 311 307 307 309 309 309
320 320 320 320 319 317 311 309 309 309 306 306 306 307 310 312 312 309 309 309 309 309 306 309 308 309 308 307 308 309 310 309 310 309 307 308 309 309 308 310 311 311 309 309 309
323 322 321 320 320 317 311 309 308 310 307 305 305 305 306 310 310 310 308 307 309 308 308 310 310 309 307 308 309 308 309 310 310 308 306 307 310 309 307 308 309 309 309 309 309
325 325 323 322 319 317 312 312 308 310 307 306 307 306 308 308 307 306 307 308 308 309 308 308 308 309 308 308 308 310 308 309 310 310 312 309 312 309 309 309 307 309 309 308 308
323 324 323 322 319 317 315 312 308 305 328 313 307 308 309 305 306 306 306 308 308 308 308 307 309 309 309 310 308 310 309 308 308 307 309 309 309 311 308 307 308 308 309 308 308
322 323 322 320 319 321 317 310 309 316 327 313 307 308 309 309 308 305 306 306 306 308 306 307 306 307 308 307 306 308 310 309 306 307 311 310 310 311 308 308 309 308 307 307 308
318 320 320 319 317 317 315 310 324 327 316 317 309 308 308 308 308 306 307 308 307 308 306 305 306 306 307 309 308 309 309 310 310 310 313 307 309 312 310 307 308 309 307 305 303
312 315 319 319 319 317 314 320 328 323 319 314 310 308 310 308 309 307 306 306 305 305 305 307 312 306 306 308 308 308 308 311 309 311 313 307 311 314 308 307 306 304 304 303 302
308 310 316 317 318 316 317 324 325 323 319 320 320 320 313 309 309 308 305 305 305 304 308 306 308 306 305 307 307 306 308 308 310 298 305 311 310 312 307 307 308 307 305 303 301
305 312 313 314 318 313 319 321 322 319 319 320 324 321 321 311 313 312 312 308 308 304 305 308 311 307 305 306 306 306 306 310 308 313 309 311 310 312 311 312 311 307 305 302 301
305 309 311 314 315 314 319 317 317 317 318 320 322 322 321 323 322 322 321 315 308 308 306 311 313 315 311 309 310 306 307 307 308 312 316 317 315 314 312 307 306 303 302 302 303
306 309 311 314 315 315 316 315 314 315 314 318 317 320 320 319 321 320 321 319 314 313 311 310 315 319 316 310 305 307 308 308 312 313 311 314 315 313 313 311 310 311 309 304 302
306 306 311 312 315 316 315 315 315 315 315 316 317 316 315 317 318 316 315 314 314 314 315 312 314 319 317 313 310 313 313 312 312 312 314 314 314 311 311 311 311 310 306 305 304
300 303 308 310 311 313 313 314 315 313 314 314 315 314 314 315 315 316 315 313 310 312 313 314 316 318 318 315 315 313 312 312 314 317 316 315 314 313 312 311 311 311 310 309 304
298 300 302 309 308 310 310 310 311 311 311 312 313 314 314 315 313 314 311 308 306 308 308 310 315 315 313 313 312 312 313 315 316 315 316 316 315 314 313 311 306 301 301 300 300
297 298 298 299 300 303 306 308 308 309 310 310 311 310 307 310 310 307 299 303 303 303 302 303 305 306 307 307 306 310 312 313 312 311 313 314 314 301 297 294 293 293 293 293 293
293 295 297 297 297 298 301 303 301 300 304 302 298 299 300 300 296 295 295 296 297 297 297 300 302 302 304 302 301 301 302 303 305 305 304 307 297 295 293 292 291 292 291 291 292

GFSSW_925_thetae_024.txt.gz
Theta_e
310 310 310 310 310 310 309 309 309 309 309 308 308 307 307 307 309 311 311 313 314 314 315 312 313 315 314 313 312 308 311 311 313 313 315 312 313 311 310 311 310 309 310 309 309
310 310 310 310 310 310 310 310 310 309 309 309 308 307 306 307 310 312 311 312 313 313 314 313 313 312 311 314 313 312 308 309 308 310 313 313 312 313 313 311 310 310 308 308 307
311 310 310 310 310 310 310 310 310 310 310 310 309 308 306 307 309 308 316 312 313 314 314 314 313 312 314 314 314 312 313 310 311 310 312 313 312 310 311 311 308 310 310 305 304
312 312 311 311 310 309 308 308 309 310 310 310 310 309 307 310 309 311 314 313 314 314 314 313 311 313 313 314 313 315 312 312 313 313 314 313 310 311 309 314 310 307 308 305 303
314 314 314 314 313 313 312 310 308 307 307 310 311 309 308 309 308 311 312 314 314 313 313 310 312 311 314 311 312 314 313 313 311 311 311 311 311 311 310 310 307 306 305 305 304
315 315 315 315 315 316 315 314 311 310 307 305 307 309 310 307 310 310 312 314 314 312 311 310 310 309 312 312 313 311 312 311 310 311 311 313 313 311 310 307 307 306 305 303 303
315 315 315 316 316 317 317 314 311 310 310 308 305 307 312 307 311 311 312 312 312 311 308 310 311 312 311 311 310 312 312 308 307 309 310 309 311 309 311 309 307 306 304 305 303
315 316 316 317 317 318 316 314 311 310 310 309 307 309 305 309 310 310 311 310 310 311 310 310 311 310 311 310 308 310 309 310 308 308 309 310 310 311 307 306 307 306 305 304 304
317 317 317 317 318 319 317 315 310 309 309 307 309 310 306 308 310 310 311 309 309 309 310 311 310 309 309 307 308 306 308 307 307 307 309 308 309 309 308 307 306 305 305 306 306
319 319 319 319 319 320 319 311 311 314 313 315 314 308 307 308 311 309 309 309 308 307 308 309 305 307 305 306 309 308 306 306 306 308 307 309 309 308 309 307 308 309 308 306 308
320 320 320 320 320 320 318 309 305 304 311 308 310 305 305 310 310 308 308 309 307 307 308 308 307 308 309 307 308 307 305 305 306 307 309 308 308 308 309 309 309 309 309 307 308
322 322 321 321 321 320 313 308 308 306 308 306 306 308 309 311 311 308 308 309 308 308 306 307 307 307 307 306 307 307 308 307 308 307 305 306 308 308 307 308 309 309 309 309 309
325 325 324 323 323 318 312 310 308 309 307 307 305 305 306 309 309 309 307 307 309 307 306 309 309 307 307 307 308 306 307 308 308 307 305 305 309 307 307 306 308 308 308 307 307
324 324 324 324 321 318 315 313 308 309 313 312 306 306 307 307 307 305 306 307 307 309 307 307 307 308 307 307 307 309 306 307 308 308 309 307 310 309 311 310 306 307 306 304 304
323 323 323 323 322 318 315 313 308 305 327 314 306 307 307 305 306 306 305 307 308 307 307 308 308 308 308 308 306 308 308 307 307 307 307 308 308 311 308 308 307 306 305 304 303
320 321 321 321 320 319 315 312 309 321 327 318 307 308 309 308 307 305 306 305 305 307 306 306 305 306 307 306 306 307 309 307 304 306 310 308 309 309 307 309 309 308 306 305 303
315 317 318 319 318 318 315 313 324 327 318 318 309 308 307 307 308 306 308 308 306 308 306 305 306 306 306 308 306 307 307 309 309 310 312 307 308 311 309 307 308 308 306 304 302
309 311 314 318 318 316 316 322 323 324 323 316 310 308 311 307 308 306 305 306 304 305 304 307 316 306 305 307 307 306 307 311 312 310 314 307 309 311 307 307 305 305 304 303 301
305 307 310 312 317 317 319 323 323 322 320 322 321 322 320 310 310 308 306 305 304 305 310 307 309 305 304 306 307 306 308 307 311 300 306 312 311 309 306 306 306 307 306 302 301
302 307 311 308 315 314 319 321 320 319 319 320 323 322 322 314 311 309 310 308 307 304 305 309 315 308 305 305 305 306 305 310 309 315 314 313 311 313 311 311 308 304 302 301 300
302 307 307 312 315 315 317 317 317 315 316 319 322 322 322 322 321 321 322 317 308 307 305 313 313 314 313 308 309 306 307 307 307 312 318 319 316 313 310 308 307 305 305 304 304
304 304 308 313 315 314 314 313 313 314 313 316 318 319 320 319 320 319 319 319 315 310 310 313 318 318 316 311 306 307 311 310 315 314 310 313 315 312 311 310 307 306 302 300 298
301 303 308 312 312 312 312 313 313 313 314 315 315 315 315 316 317 316 316 313 312 312 315 312 317 319 315 311 308 311 310 310 312 313 317 318 316 311 311 310 298 298 297 297 295
298 301 302 308 308 310 310 310 310 311 313 313 314 313 314 315 314 316 315 313 307 309 311 313 316 317 319 315 313 313 313 312 312 313 316 315 316 314 306 300 295 294 292 293 292
296 298 300 305 305 307 308 309 309 309 310 309 311 312 312 315 314 313 311 306 306 305 305 308 312 313 311 308 308 309 309 307 308 308 310 309 311 309 296 293 293 294 291 291 291
294 296 296 295 298 300 302 304 306 307 307 308 307 307 308 310 308 308 299 302 301 300 299 301 302 303 303 302 302 303 302 302 302 301 305 307 306 294 292 292 291 293 292 290 290
292 294 296 294 296 297 297 300 299 297 298 297 297 298 300 301 296 296 296 296 297 297 297 297 297 294 299 298 295 294 294 295 295 297 298 300 294 292 291 291 290 291 292 291 289

GFSSW_925_thetae_027.txt.gz
Theta_e
310 310 310 310 310 310 310 309 309 309 309 309 308 308 307 307 307 310 310 311 313 314 314 313 314 314 314 312 310 307 313 313 314 312 313 311 313 310 309 311 310 309 310 310 309
311 310 310 310 310 310 310 310 310 310 310 310 309 309 307 307 309 311 311 310 313 313 314 312 312 312 311 313 313 313 311 311 309 308 312 313 312 313 312 311 310 310 308 308 308
312 311 311 310 310 310 309 308 308 309 310 310 310 310 309 308 308 308 315 313 312 313 313 313 313 311 313 313 313 311 314 310 310 307 311 312 311 310 311 313 310 312 311 306 305
314 314 313 313 313 312 312 312 310 308 307 308 310 310 309 310 309 309 314 312 313 313 313 312 311 313 313 314 312 314 312 310 312 311 313 312 310 311 309 316 312 309 309 307 305
315 315 314 315 315 315 315 315 313 311 310 307 306 308 309 307 307 311 311 313 314 313 313 309 311 311 313 311 312 313 312 312 311 311 310 310 312 312 309 310 309 306 306 306 306
315 315 315 315 316 317 318 317 314 312 312 310 309 305 309 307 310 310 311 313 314 313 311 310 310 309 311 311 311 310 311 310 309 310 310 312 313 310 310 310 308 306 307 306 304
315 315 316 316 317 318 320 317 316 314 311 310 309 306 308 307 310 310 312 313 313 313 308 310 310 311 309 311 309 310 311 308 307 308 309 308 311 309 310 308 309 307 305 304 304
316 316 317 318 318 320 321 319 318 313 310 309 309 307 302 306 309 309 311 310 311 311 310 310 311 310 311 309 307 309 308 309 308 307 308 310 311 310 307 306 307 306 305 305 305
318 319 319 320 320 321 321 319 311 311 310 307 309 307 305 307 309 309 310 309 309 309 309 309 310 308 308 308 307 306 308 306 307 306 308 309 310 308 306 307 308 308 307 307 309
319 320 320 320 320 321 322 316 310 314 313 314 312 308 306 308 310 309 309 308 308 307 308 308 304 307 304 306 310 308 306 305 306 308 306 308 309 308 308 306 308 308 309 309 308
321 321 322 322 322 323 320 311 309 308 308 308 309 305 305 308 310 308 308 308 306 306 308 307 307 308 309 307 306 306 305 305 304 305 307 308 308 307 307 306 307 308 308 307 307
324 325 324 324 324 323 316 307 307 307 308 307 306 306 308 310 310 307 308 308 307 308 305 306 307 307 306 305 306 306 308 308 307 306 304 306 308 308 308 308 309 309 309 308 306
325 325 325 325 324 319 313 311 308 308 308 310 306 305 306 308 308 309 306 306 308 306 305 308 309 306 306 306 307 305 306 307 307 305 305 304 308 307 307 306 307 307 307 306 306
322 323 323 324 322 320 313 313 308 308 315 314 308 306 306 306 307 305 305 307 307 308 306 306 306 307 306 306 306 309 306 306 306 307 309 306 310 310 311 310 308 306 305 304 304
321 321 322 322 322 319 316 315 308 305 330 314 306 306 306 305 305 305 305 307 308 307 307 309 306 307 308 308 305 308 307 307 306 306 307 307 308 307 307 308 308 308 306 305 305
319 319 320 320 320 319 315 320 310 322 329 319 306 307 308 307 306 305 306 304 304 306 305 305 304 305 306 306 305 306 308 305 304 306 309 308 309 309 308 310 309 309 305 304 303
313 315 317 319 318 318 318 316 325 327 321 315 307 306 306 307 307 306 307 308 307 308 306 305 305 305 305 307 305 307 307 310 311 310 314 306 307 310 309 306 308 307 306 302 301
307 308 311 316 318 318 317 320 323 323 323 319 320 315 318 311 309 306 305 307 305 305 305 306 316 305 304 307 308 306 308 313 319 312 319 306 310 310 306 306 304 303 302 301 301
303 305 307 308 316 317 318 323 322 320 319 321 319 322 320 314 315 314 315 318 314 306 312 316 317 304 303 305 306 306 309 308 312 303 306 311 311 309 305 305 304 302 302 301 299
301 305 308 308 311 315 318 317 319 317 318 319 323 322 321 317 312 310 310 307 307 304 304 310 315 310 306 305 305 306 306 310 309 317 317 314 312 313 311 311 304 302 301 300 298
301 304 305 310 313 313 315 312 314 314 317 318 320 321 321 320 317 319 317 318 312 309 306 311 315 315 313 307 308 306 307 307 307 316 320 319 316 309 307 301 300 299 298 296 294
303 299 308 313 313 312 313 312 311 312 312 314 316 316 317 317 318 317 318 317 312 308 312 314 318 318 317 312 306 307 309 309 315 314 311 314 315 312 302 299 296 295 293 293 292
302 300 307 311 311 311 310 311 311 312 312 313 313 313 313 314 316 314 314 311 311 312 315 313 316 318 315 310 309 310 310 310 313 314 318 319 316 309 307 299 294 293 292 291 291
297 297 299 308 306 308 307 308 308 308 310 311 312 311 311 313 312 313 313 312 309 309 310 311 313 316 317 314 312 314 313 311 312 312 313 312 311 307 306 299 293 294 291 291 290
294 296 298 298 301 305 307 306 307 307 307 307 309 310 310 312 310 310 310 307 305 303 303 308 311 310 311 310 305 305 305 305 305 305 307 306 305 305 298 293 292 291 292 292 292
294 294 295 295 297 301 302 303 304 303 305 304 306 301 302 306 307 307 302 302 301 298 299 301 303 302 298 301 301 300 299 300 301 300 300 301 301 293 292 291 290 289 290 290 290
291 293 295 292 295 296 295 299 297 297 296 296 296 297 297 301 297 296 296 296 296 297 296 297 299 297 301 299 293 296 294 295 294 295 297 297 293 288 289 290 289 288 288 289 288

GFSSW_925_thetae_030.txt.gz
Theta_e
310 310 310 310 310 310 310 309 309 309 309 309 309 309 309 308 307 309 311 311 312 313 314 313 314 314 315 318 316 315 320 320 319 318 318 317 318 315 314 317 315 316 318 317 312
311 311 310 310 310 310 309 309 309 309 309 310 310 310 309 309 309 313 311 310 312 313 314 315 316 315 318 318 319 320 320 319 318 317 317 317 317 318 316 317 318 316 316 313 311
313 313 312 312 311 311 311 311 310 309 308 308 309 310 310 309 313 311 314 313 312 313 314 313 314 316 317 318 319 319 319 319 316 315 314 316 316 316 317 318 318 318 318 317 313
315 314 314 314 314 314 314 314 313 312 311 310 308 306 309 310 314 309 314 312 312 313 312 313 315 317 318 318 318 319 318 318 317 315 315 316 316 316 316 317 317 318 317 317 315
315 315 315 315 316 316 317 317 316 314 313 312 311 308 308 311 312 311 311 312 312 313 313 315 316 317 317 317 316 318 318 317 317 316 315 316 317 317 317 317 317 316 314 314 316
315 315 315 316 317 318 319 319 317 316 314 313 311 309 309 309 310 310 310 313 313 313 313 314 315 315 315 315 316 315 315 316 315 315 315 315 316 315 315 316 315 315 315 315 314
315 316 316 317 319 320 321 321 319 319 316 312 310 309 309 312 309 310 312 314 314 312 313 311 312 315 315 315 313 313 314 315 314 313 314 313 315 315 315 315 314 314 315 314 313
317 318 319 320 320 321 321 321 319 314 311 309 309 308 311 307 307 308 311 311 312 312 311 310 310 313 313 312 312 313 312 314 314 311 312 314 314 315 315 312 313 314 314 314 314
318 319 320 321 322 323 324 321 315 311 310 308 310 308 311 307 308 308 310 310 309 309 309 309 311 313 312 314 314 314 314 315 314 312 312 314 314 314 313 312 312 313 313 314 314
320 320 321 322 323 323 323 319 310 313 313 312 310 309 309 310 309 308 309 308 309 310 311 312 312 313 312 313 315 316 314 313 313 313 311 312 313 312 312 312 312 312 313 313 313
321 322 323 324 323 323 322 312 318 316 312 317 316 310 309 308 309 307 307 308 309 311 313 312 313 314 314 314 314 312 312 313 313 313 311 312 313 313 312 312 313 313 313 314 313
324 325 324 324 324 323 318 313 310 309 316 312 311 309 308 309 312 308 307 311 311 313 310 311 313 314 312 310 311 312 313 314 314 313 310 312 312 312 312 313 313 313 313 314 313
324 324 323 324 324 320 315 312 309 308 316 317 310 309 309 309 312 312 309 309 311 311 311 314 315 311 311 311 311 313 312 313 314 312 311 311 314 313 314 312 312 312 312 311 310
323 322 322 323 321 320 314 314 309 308 323 321 311 308 306 308 310 305 306 308 310 313 311 312 311 310 310 311 312 314 313 311 311 311 313 311 315 316 316 316 314 313 310 310 311
320 320 320 322 321 321 315 312 308 307 332 315 307 307 307 308 307 307 305 308 311 311 310 314 310 310 311 312 310 312 309 309 310 311 311 313 313 319 313 313 313 311 310 309 307
319 319 320 319 320 319 317 317 311 326 332 320 308 310 310 308 307 307 308 307 306 309 308 310 306 308 310 308 308 308 310 311 309 311 317 318 315 316 315 313 312 310 307 306 305
314 315 317 318 319 319 318 319 325 330 323 320 312 309 310 309 308 308 310 311 317 320 318 317 317 308 306 309 307 309 311 317 322 321 323 311 315 315 314 312 309 307 305 304 302
307 308 311 316 318 319 317 323 326 322 324 321 318 314 323 315 316 313 316 316 316 313 316 319 320 310 307 310 314 311 313 323 328 326 326 320 321 319 313 307 306 306 305 303 301
304 304 306 307 315 317 320 322 321 320 320 322 320 323 322 318 318 319 319 321 317 313 318 318 318 309 305 306 309 310 312 313 315 318 319 319 318 313 309 308 306 305 304 302 299
301 304 307 308 312 315 317 316 316 318 319 320 322 320 321 320 317 315 316 311 311 306 307 316 321 316 309 306 307 310 311 315 313 321 322 318 317 316 311 309 307 305 302 299 298
300 305 304 308 312 314 315 313 312 313 315 317 317 319 318 319 319 318 318 318 317 315 309 313 316 317 313 313 314 309 309 309 313 318 322 322 318 313 311 306 305 301 299 297 296
304 303 307 310 312 313 313 312 311 312 312 315 315 317 317 317 317 316 315 316 314 308 314 313 316 318 315 314 311 310 313 313 316 317 316 317 317 313 306 302 300 297 295 295 294
305 304 307 310 310 312 311 311 311 312 311 312 313 313 312 313 314 312 313 312 312 314 315 313 318 319 319 315 311 313 314 312 314 315 318 320 318 307 303 298 296 295 293 293 293
301 302 304 309 309 309 309 308 309 308 310 310 310 312 312 312 311 312 312 312 311 310 307 310 312 315 316 315 313 316 313 310 311 314 315 316 313 309 307 305 297 295 292 293 292
298 299 301 308 307 309 307 306 307 308 307 308 309 310 310 310 309 309 308 307 306 301 305 308 311 310 309 310 309 309 308 306 306 307 308 308 307 305 303 296 293 290 290 292 292
297 299 297 299 299 303 305 306 305 304 304 304 305 305 303 306 307 307 305 305 304 301 301 300 306 304 303 303 303 304 301 301 301 301 300 300 302 300 293 292 292 291 289 290 290
291 293 296 295 297 300 300 301 301 300 297 298 298 300 299 301 299 298 297 297 299 299 299 299 301 302 303 301 298 299 299 299 299 298 298 297 297 293 292 292 291 290 290 290 290

GFSSW_925_thetae_033.txt.gz
Theta_e
310 310 310 310 310 309 309 309 309 309 309 309 310 310 310 310 309 315 315 314 313 313 315 315 316 317 318 320 319 320 321 321 321 320 319 319 318 319 318 318 319 319 319 319 317
312 311 311 310 310 310 310 309 309 309 308 308 309 309 310 310 313 316 314 311 310 312 316 317 318 317 320 320 321 321 322 320 320 319 318 318 318 318 318 318 318 319 319 318 316
314 314 313 313 313 312 312 312 312 311 311 310 309 307 308 310 317 314 313 312 311 313 316 316 317 318 319 320 321 321 320 319 319 319 318 317 317 317 317 318 317 318 318 319 318
315 315 314 315 315 316 315 316 315 314 314 313 312 311 306 313 315 311 314 313 311 314 315 315 317 318 318 319 319 320 319 319 319 319 317 318 317 317 317 317 317 318 318 318 318
315 315 315 315 316 317 318 319 318 316 315 314 313 311 310 314 314 312 311 312 312 314 315 316 317 317 318 317 318 319 318 317 318 318 318 318 317 317 317 317 317 317 317 317 317
315 315 316 317 318 319 320 321 321 319 318 316 313 310 315 316 311 312 311 312 314 314 315 315 316 316 317 316 316 317 317 317 316 316 316 316 317 316 316 316 316 316 316 316 316
316 316 317 319 320 320 321 323 321 320 317 315 311 310 313 316 312 315 313 316 314 314 315 315 315 316 316 317 316 316 315 315 316 316 316 315 316 316 316 316 316 315 316 316 316
317 318 319 320 322 323 323 323 320 315 311 310 309 315 313 309 311 309 312 312 313 313 313 313 313 315 315 316 315 315 316 316 317 315 315 314 315 316 316 315 315 314 315 316 316
318 319 320 322 323 323 323 322 317 311 311 308 315 315 314 308 310 310 311 312 312 311 311 310 313 315 315 315 315 316 317 318 318 317 314 315 315 315 315 315 315 316 316 315 315
319 320 321 323 323 323 322 320 312 313 314 312 312 312 311 312 310 309 309 311 312 312 312 313 314 315 315 315 317 319 319 318 318 317 316 316 316 316 316 316 316 316 315 315 315
321 322 323 324 324 323 322 316 321 321 317 322 323 318 320 311 309 310 309 310 312 313 314 314 314 315 316 317 316 316 316 317 316 316 316 317 316 315 315 315 315 316 316 315 315
323 323 323 323 323 324 319 320 315 313 323 321 319 317 315 311 315 311 309 312 312 314 314 314 315 316 316 316 314 315 315 316 316 317 316 316 315 314 314 316 316 316 315 315 313
323 323 323 323 322 321 318 315 312 310 321 322 315 315 313 311 319 319 310 313 314 316 315 317 319 317 314 315 315 316 316 316 316 315 314 314 315 316 317 319 315 313 313 312 311
324 323 321 322 322 322 319 316 311 310 325 324 315 310 308 311 312 308 308 311 313 316 316 317 313 312 313 314 314 315 315 314 313 313 315 313 316 317 319 319 313 312 310 309 308
322 321 321 321 324 323 315 316 311 310 332 317 310 308 309 310 310 310 307 310 313 314 313 315 312 312 313 313 313 314 312 312 312 313 314 315 316 319 320 316 313 311 309 307 305
320 319 320 320 320 318 318 319 314 325 331 323 311 312 311 309 309 310 310 309 310 311 312 313 310 311 314 312 311 311 311 313 314 314 320 320 320 320 316 314 311 309 307 306 304
317 318 318 318 321 319 319 321 327 328 324 324 316 312 315 313 311 311 313 314 318 320 320 317 317 319 311 314 312 310 313 323 325 323 324 316 322 319 316 311 310 308 307 305 303
311 311 312 317 318 318 320 325 327 321 322 323 321 318 322 319 320 316 318 321 319 318 321 320 318 317 311 313 315 314 316 323 328 326 326 321 322 321 313 309 309 308 306 304 302
305 307 310 311 317 318 322 327 322 319 319 321 321 322 322 321 320 321 320 320 318 318 319 318 318 312 309 309 311 316 316 316 324 322 323 318 317 317 311 310 309 307 305 302 301
307 308 309 308 315 316 319 320 318 316 319 320 321 318 318 319 318 317 316 315 313 309 311 317 320 318 314 308 309 309 309 316 316 322 321 317 317 317 313 311 309 306 303 301 299
305 308 307 310 314 314 316 313 311 312 314 318 317 317 315 315 316 316 317 317 317 315 312 317 318 318 314 314 315 312 311 310 312 317 321 321 317 314 312 311 308 303 300 299 298
305 308 308 312 313 313 313 311 309 312 312 313 315 315 315 314 314 314 315 314 315 312 314 314 316 318 315 312 313 313 314 314 316 316 316 317 317 315 308 306 302 301 299 297 295
305 306 308 311 313 314 311 311 311 312 312 312 314 314 313 313 313 311 311 312 313 313 315 314 315 316 313 308 312 315 314 314 316 315 318 321 320 311 308 303 299 299 296 294 294
304 305 307 308 311 310 310 310 311 310 310 310 310 310 311 310 310 310 309 313 312 311 308 311 313 315 315 309 310 313 311 313 313 314 313 313 313 310 308 308 307 299 296 294 293
302 302 305 309 309 309 308 307 307 308 308 308 308 308 308 308 308 308 308 308 308 304 307 308 310 308 309 309 308 308 307 308 307 308 309 308 308 306 305 302 297 293 292 292 293
300 301 301 304 306 308 308 307 307 306 306 306 307 308 308 309 309 309 307 306 305 303 303 303 304 304 305 303 303 304 304 304 304 304 303 303 304 303 298 296 296 295 292 291 291
295 296 300 301 303 305 307 306 305 305 303 302 303 304 304 304 303 301 301 301 301 301 301 301 301 302 302 300 300 301 300 300 300 300 301 301 300 296 295 293 292 292 291 291 290

GFSSW_925_thetae_036.txt.gz
Theta_e
310 310 310 310 310 310 309 309 309 309 309 309 309 309 310 310 310 316 318 315 315 314 316 317 316 317 318 320 319 320 320 320 321 320 319 317 318 319 318 317 316 316 317 318 318
312 311 311 311 311 311 311 311 310 310 310 310 309 308 307 308 311 317 317 314 312 312 316 316 318 318 318 320 321 320 322 321 318 317 317 316 315 315 315 315 315 315 316 318 318
314 313 313 313 313 314 314 315 315 314 314 313 313 312 309 307 319 316 313 312 310 312 316 317 317 318 319 319 320 321 321 319 318 318 317 317 315 315 314 315 315 314 314 315 317
315 314 314 315 316 316 317 317 317 316 315 315 314 313 311 312 316 312 314 313 311 313 316 316 316 318 318 319 319 318 318 318 318 318 318 317 316 315 314 314 315 314 314 314 313
315 315 315 315 316 318 319 319 319 319 318 317 315 313 312 317 315 316 311 311 311 315 315 316 316 317 318 317 316 317 317 318 317 316 316 316 316 316 315 314 314 314 313 313 313
315 315 316 317 319 320 321 322 322 321 320 318 315 312 316 317 313 318 315 312 314 314 315 315 316 316 316 316 315 316 316 315 315 314 314 315 315 315 314 313 313 313 313 312 312
315 316 317 319 320 322 323 323 323 321 320 316 312 310 316 315 314 316 313 316 315 314 315 315 315 316 316 316 314 315 314 314 314 314 314 315 315 314 313 313 312 313 311 311 311
317 318 319 320 322 323 323 323 322 320 314 311 309 315 315 311 312 310 314 313 313 314 314 314 314 314 315 315 315 315 314 315 316 316 314 313 314 314 313 312 312 312 312 311 312
318 318 319 321 323 323 323 322 321 312 312 309 316 318 315 309 311 310 312 312 313 312 312 311 313 314 315 315 315 314 314 315 316 316 314 313 314 314 313 312 312 313 312 311 311
319 319 320 322 323 323 323 321 315 313 317 315 315 313 311 313 311 310 309 311 312 313 313 313 313 314 313 313 314 316 316 316 315 316 314 314 314 314 314 313 313 312 311 311 309
320 321 322 323 323 323 323 319 320 319 315 321 322 318 322 311 309 310 310 311 312 313 314 313 313 314 314 314 315 315 314 314 314 315 314 315 315 313 313 313 313 312 311 309 309
322 322 322 323 323 323 320 321 314 313 320 321 322 322 319 312 316 311 309 312 313 314 314 314 314 315 315 315 314 314 314 313 315 315 313 313 313 313 313 312 312 312 310 309 307
323 323 323 323 322 322 320 315 315 312 319 322 317 317 314 312 319 315 311 313 314 316 316 316 317 316 316 315 315 315 315 315 314 313 312 311 312 313 314 313 310 309 307 306 304
323 323 323 321 322 323 320 317 314 312 322 324 315 311 309 312 314 309 310 312 315 317 317 318 312 313 313 314 314 314 314 313 313 312 312 310 312 314 314 310 309 307 305 303 302
324 323 322 321 324 323 316 318 315 312 329 319 311 309 309 311 311 310 308 310 315 314 313 316 312 312 313 313 313 314 311 312 311 312 312 313 313 315 314 311 309 306 305 302 301
323 322 320 320 321 319 319 319 316 325 328 318 312 313 310 309 309 310 310 309 309 312 312 312 310 311 315 313 312 311 310 310 310 312 316 319 319 317 312 311 308 306 304 303 301
320 319 319 321 321 319 319 321 328 328 323 321 315 312 314 312 311 311 312 312 315 318 317 315 312 312 314 315 311 310 311 318 321 317 320 318 319 319 311 309 308 306 304 302 300
317 317 317 319 319 319 321 326 329 323 322 321 319 316 321 316 316 313 315 318 318 318 319 320 318 314 310 314 313 312 315 320 322 322 320 316 318 319 309 307 306 305 302 301 299
309 309 311 314 318 318 323 325 324 321 319 320 323 323 323 323 323 320 319 319 318 318 320 316 317 309 309 309 310 314 316 313 321 318 322 318 315 311 309 308 306 304 301 299 297
308 309 311 311 317 318 321 322 320 318 318 320 322 319 318 319 320 318 316 315 313 310 312 317 320 318 311 308 308 309 308 316 316 319 312 314 313 314 312 309 307 303 300 298 297
306 309 310 311 314 315 318 317 316 315 316 318 319 319 317 315 314 315 315 316 317 310 311 317 318 316 315 313 315 310 311 310 311 314 316 315 312 309 310 308 304 300 299 298 296
308 309 307 314 313 313 314 312 310 311 311 313 313 314 314 312 313 313 314 313 313 312 314 315 316 315 314 311 310 310 312 312 315 316 312 314 314 305 303 301 301 300 298 296 295
306 308 308 312 311 311 311 311 310 311 311 312 313 313 312 312 314 312 311 312 312 313 315 313 313 312 309 307 311 313 312 312 312 312 315 317 315 308 302 301 300 302 299 295 294
305 307 308 308 310 312 311 311 311 310 311 311 311 310 312 312 311 310 309 313 310 310 310 310 313 308 307 306 308 306 307 307 308 312 309 309 308 306 304 303 301 303 300 293 293
303 303 306 308 309 310 310 309 310 311 310 309 310 310 309 309 308 308 308 308 308 306 308 308 308 307 308 307 305 304 304 306 306 305 305 303 302 303 303 299 295 292 291 292 292
301 301 301 304 306 308 308 307 308 306 308 307 308 306 307 307 308 304 304 306 306 303 304 303 297 299 295 301 302 303 302 301 301 302 301 301 301 301 295 295 295 294 291 291 290
296 297 300 303 304 307 308 306 307 306 306 304 304 304 305 304 301 300 301 299 302 302 301 300 297 292 292 299 297 293 297 299 299 299 298 298 298 293 294 292 291 290 291 290 290

GFSSW_925_thetae_042.txt.gz
Theta_e
309 309 310 310 310 309 309 309 309 310 310 311 311 311 311 310 309 309 314 315 314 313 314 314 315 316 316 315 316 311 311 313 315 315 314 312 313 312 311 314 312 314 313 312 316
310 310 310 310 310 309 310 311 311 312 313 313 313 313 313 312 311 315 315 315 313 312 314 314 314 315 312 316 315 312 310 312 313 313 316 314 314 313 313 310 311 311 311 313 316
312 311 311 312 313 314 314 313 314 316 316 316 315 315 314 311 315 315 314 313 313 311 315 315 315 314 315 315 316 314 313 314 315 314 314 314 312 313 313 313 310 311 310 311 314
313 313 313 313 314 315 316 316 317 318 318 318 317 316 313 312 313 313 313 311 310 312 316 315 314 314 314 315 314 317 315 315 316 315 314 314 314 313 313 313 311 309 308 308 308
314 314 314 314 315 317 318 319 320 321 320 320 318 315 312 315 313 316 313 312 311 312 314 313 313 313 314 313 313 314 313 313 313 311 311 312 311 312 311 310 309 308 308 305 305
315 315 314 315 316 318 320 321 322 322 321 320 317 314 313 312 315 315 314 311 312 313 313 313 313 312 313 313 313 312 312 311 311 311 311 312 311 312 311 310 309 308 305 304 304
316 315 315 316 318 320 321 322 322 322 321 317 312 311 316 310 314 315 313 312 314 313 313 313 313 313 312 313 311 312 313 311 311 311 311 310 313 311 310 308 308 307 303 304 303
316 315 316 317 319 321 322 322 322 322 317 311 310 314 309 311 312 314 314 313 314 314 314 313 313 312 313 312 310 312 311 312 312 312 312 311 312 311 309 308 308 304 303 303 301
316 316 317 318 320 322 323 322 322 321 313 312 315 316 312 308 310 311 312 312 312 312 312 312 312 311 310 309 309 310 310 311 312 311 312 311 311 309 309 308 308 304 302 302 300
316 317 318 319 320 323 322 322 319 316 316 315 315 313 310 309 309 310 311 312 311 310 309 311 307 308 307 307 311 312 311 310 312 312 310 311 309 308 308 308 307 302 301 300 299
317 317 318 319 322 322 322 320 318 318 317 316 313 311 311 310 310 310 310 311 311 310 310 310 309 309 308 308 309 310 311 311 310 310 311 311 310 310 307 307 304 302 301 300 299
317 318 319 321 322 322 320 318 317 316 319 317 316 315 313 311 312 309 310 309 311 311 310 310 310 310 309 309 310 310 312 311 310 310 311 310 309 306 306 305 303 302 300 299 298
318 319 320 322 323 321 320 317 317 314 317 317 316 318 314 316 318 314 308 308 310 310 310 311 312 310 311 313 314 313 313 312 313 309 309 309 309 309 306 303 302 300 298 298 297
320 321 322 322 321 321 318 319 316 314 318 319 317 312 309 311 314 308 308 310 312 311 310 311 311 312 313 313 313 315 311 311 312 310 311 308 313 309 307 305 302 299 297 296 296
322 322 322 322 322 321 320 319 317 313 327 316 311 307 307 313 308 307 307 309 313 312 311 315 311 311 313 313 310 312 309 310 310 309 309 309 310 308 306 306 302 299 298 296 295
322 322 323 322 321 321 318 319 316 321 326 313 308 309 307 307 308 307 308 307 308 309 309 310 308 308 310 310 309 308 309 309 306 307 311 308 311 312 309 307 302 299 297 296 294
323 323 323 322 321 319 318 319 325 327 318 314 310 308 308 307 308 308 308 308 309 312 312 312 311 309 310 313 308 308 310 314 315 312 315 314 311 312 306 305 302 299 297 295 293
323 323 323 321 321 320 320 325 327 322 321 313 310 310 311 308 308 308 309 311 309 312 314 317 319 310 310 312 314 309 310 312 311 316 314 312 317 313 303 300 299 298 296 294 293
323 318 318 320 319 320 322 327 326 322 319 318 316 315 316 316 312 309 309 311 312 310 317 316 317 308 307 307 310 311 312 310 312 311 317 314 310 306 302 299 297 296 295 295 293
316 312 312 318 316 319 324 326 323 319 317 319 320 319 320 320 319 312 311 312 315 310 311 314 316 313 310 309 306 309 308 312 310 309 315 313 313 311 305 301 298 296 295 294 293
312 313 312 315 316 317 324 322 318 315 315 318 319 319 318 316 319 316 316 314 310 308 311 313 312 312 311 312 311 307 309 309 312 309 308 306 311 306 306 301 299 297 296 295 293
309 314 311 314 315 314 316 316 315 314 313 315 314 316 316 313 313 312 313 311 309 310 314 312 311 308 312 309 308 309 308 308 313 310 308 311 311 306 305 301 298 298 297 295 294
309 308 310 311 316 314 312 313 313 311 311 313 313 312 311 312 314 310 309 310 309 310 312 311 308 302 306 305 308 310 309 309 309 307 305 313 309 302 300 299 298 299 298 295 292
306 308 307 309 308 312 312 312 313 309 309 310 310 310 310 310 309 310 312 311 307 310 310 309 305 305 310 303 306 306 307 306 303 300 301 308 305 303 301 301 298 295 296 293 289
304 307 306 310 312 310 311 311 311 311 309 309 310 309 311 312 311 309 310 307 305 308 306 307 305 308 305 305 305 303 304 304 305 303 302 302 300 300 299 296 295 294 296 292 289
302 303 302 305 310 310 310 310 310 310 310 309 310 309 309 310 309 308 306 306 306 305 305 301 299 298 295 300 302 302 301 300 302 302 301 302 301 299 296 293 291 289 292 291 290
296 297 301 305 306 310 310 309 309 307 303 305 308 306 307 307 303 300 299 300 302 303 303 301 296 294 299 296 293 292 294 296 295 295 295 295 295 290 293 293 291 290 288 288 287

GFSSW_925_thetae_045.txt.gz
Theta_e
309 309 309 309 309 309 309 309 309 310 311 311 312 312 313 313 313 312 311 314 314 313 313 314 314 315 315 314 314 308 309 310 313 313 314 313 313 312 310 312 310 312 312 311 314
309 309 310 310 310 309 309 310 311 312 313 314 314 314 314 314 313 314 315 315 313 313 314 314 313 314 311 315 314 309 307 309 310 313 315 314 313 313 312 310 311 311 309 312 314
309 309 310 310 310 311 311 312 313 316 317 317 316 316 315 313 313 313 314 314 313 312 314 314 314 314 314 314 316 313 311 311 314 312 314 314 312 311 312 312 309 311 309 307 311
310 310 311 311 312 314 315 317 317 318 319 319 318 317 315 313 316 312 312 311 311 311 315 314 312 314 313 314 313 317 314 313 315 314 313 313 312 313 311 312 311 308 307 305 303
313 313 313 313 314 315 317 319 320 320 321 320 319 316 313 314 313 315 312 311 310 311 314 312 312 312 313 313 312 314 313 312 312 310 310 311 311 311 310 309 306 305 304 303 302
315 315 314 314 314 316 318 320 321 321 321 320 318 315 312 311 315 316 315 312 311 312 313 312 311 310 312 312 312 311 311 310 309 310 310 311 310 311 310 309 305 304 303 302 301
316 315 315 314 315 317 319 321 322 322 322 320 314 312 315 310 313 315 313 312 312 313 312 312 312 312 311 312 311 311 311 309 309 310 310 308 312 311 309 307 304 303 302 301 300
316 316 315 315 316 318 320 322 322 322 321 314 310 313 310 312 313 314 314 314 314 313 313 313 312 311 312 311 309 311 310 310 311 311 311 310 312 311 308 307 303 302 300 300 299
317 316 316 316 317 319 321 322 322 321 316 313 314 314 312 308 311 311 313 311 312 311 311 312 311 309 309 308 307 308 310 309 310 311 311 310 311 310 308 306 305 300 299 299 297
317 316 316 317 318 320 322 322 321 316 314 314 315 314 311 309 309 309 311 312 310 309 309 309 305 307 306 306 311 310 310 309 310 311 310 311 309 309 305 304 302 299 298 297 297
317 316 316 317 318 321 322 321 317 317 317 315 312 312 310 309 309 309 310 310 310 308 308 309 306 307 308 307 308 309 309 310 309 309 311 310 309 308 304 302 301 299 298 297 296
317 317 317 318 319 322 321 318 317 317 320 316 315 311 313 310 311 309 310 309 310 310 308 309 308 308 307 307 308 309 311 310 309 309 309 309 309 304 303 302 300 298 297 296 295
317 317 317 319 321 321 321 319 317 316 318 317 316 317 315 311 317 313 308 307 310 309 309 310 312 310 309 309 311 311 311 311 312 310 308 307 308 307 303 300 299 297 296 296 295
318 317 318 320 321 321 319 320 318 315 319 318 317 314 310 314 316 308 308 308 309 311 308 309 309 312 311 312 312 315 311 312 312 310 312 307 312 309 305 302 299 297 295 295 294
319 318 319 319 321 318 321 320 317 313 327 317 313 307 307 315 309 308 307 308 311 312 310 314 311 312 313 312 311 314 309 309 309 308 308 308 309 307 304 304 300 298 296 295 294
320 319 320 321 321 321 319 318 315 322 329 315 308 308 309 307 308 306 307 307 308 310 309 311 307 308 311 308 309 307 309 308 306 306 311 309 310 310 307 306 301 298 296 295 293
320 320 321 321 321 322 316 317 324 328 318 313 309 307 307 306 307 307 308 308 309 311 311 310 310 308 309 311 308 308 312 316 312 311 315 309 309 309 305 302 301 298 295 294 292
322 321 322 321 321 322 315 323 326 324 322 310 310 307 308 306 307 307 307 309 307 310 311 315 318 309 309 310 311 309 312 313 308 314 313 310 316 314 301 299 298 296 294 293 292
323 321 321 320 322 320 321 328 325 323 319 313 312 311 311 311 308 308 308 308 309 308 317 316 317 308 307 307 310 309 311 309 311 299 311 312 310 305 300 298 297 296 294 293 292
319 318 319 320 321 317 324 326 324 320 317 313 315 314 313 316 314 308 308 309 313 308 311 313 316 311 308 308 305 309 307 313 309 308 308 310 311 311 303 300 297 296 295 294 292
315 315 314 318 318 320 326 325 322 315 315 317 316 319 317 319 315 311 314 313 311 308 310 311 312 312 310 310 310 308 309 308 310 306 305 304 308 304 305 301 298 296 295 294 293
311 317 311 312 319 317 324 318 316 313 314 316 315 316 316 313 317 317 317 314 306 310 313 311 310 308 312 308 306 307 308 307 312 309 307 309 310 303 303 301 298 297 296 294 293
312 310 309 310 321 317 314 316 316 316 317 317 318 316 315 317 319 312 310 309 309 310 312 311 309 305 308 307 307 309 308 306 306 304 305 308 309 302 300 298 297 297 296 295 293
308 312 308 309 310 312 314 315 316 311 312 314 315 311 311 312 315 312 309 310 307 310 309 309 306 307 313 307 306 308 308 306 302 301 304 310 307 303 302 300 298 297 295 294 293
304 310 308 311 310 311 313 311 314 312 309 310 310 312 313 312 310 309 310 308 306 307 305 308 308 305 304 304 304 304 304 305 304 305 306 306 305 303 302 300 298 295 293 294 290
304 304 303 306 310 311 312 310 312 313 311 311 310 310 311 312 310 310 309 308 308 304 306 301 302 301 305 301 303 305 303 304 304 304 303 303 304 302 296 296 294 293 292 294 290
296 297 303 305 307 312 310 310 310 311 308 307 309 309 309 309 304 301 301 302 304 305 304 301 300 301 309 295 295 299 297 300 301 300 302 304 302 289 293 292 292 291 288 291 290

GFSSW_925_thetae_048.txt.gz
Theta_e
308 309 309 309 309 309 309 309 310 311 312 313 314 314 314 314 314 314 311 313 313 312 313 313 314 314 314 313 311 306 307 308 311 311 313 312 313 311 309 311 309 310 311 310 313
308 309 309 309 309 310 310 310 311 313 315 315 316 316 315 315 314 314 314 315 313 313 313 313 312 313 310 314 312 307 305 307 309 311 314 313 312 312 312 309 311 310 309 309 310
308 309 309 310 310 310 310 312 314 316 316 317 317 317 316 313 313 311 314 314 313 312 313 314 314 313 313 313 314 311 309 309 313 312 312 313 312 310 312 312 310 311 308 303 303
309 310 311 311 311 312 313 315 315 316 319 319 319 318 316 313 316 312 312 311 312 312 314 314 311 313 312 313 312 315 313 312 313 313 312 313 311 312 310 311 307 306 303 303 301
312 313 313 314 313 314 315 317 319 320 320 321 320 318 314 312 313 315 312 311 310 312 314 311 312 311 312 312 311 315 314 311 311 310 309 309 310 311 309 306 302 303 302 300 300
313 314 315 314 314 314 316 318 320 321 321 321 319 315 312 312 314 316 315 312 311 311 312 311 310 310 311 311 311 310 310 309 309 310 310 311 310 310 306 302 303 303 300 299 298
315 315 315 315 314 315 317 319 321 321 321 321 317 312 313 311 313 315 314 312 311 312 311 312 311 311 310 312 310 310 310 308 308 309 309 307 311 309 308 301 302 301 299 298 297
316 316 316 316 315 316 317 320 321 321 321 319 311 313 312 312 312 315 314 313 313 313 312 312 312 310 311 310 307 310 309 310 310 310 310 310 313 311 303 303 302 299 297 297 296
317 317 317 316 315 316 318 320 322 321 319 315 315 312 313 309 312 313 313 312 312 311 311 311 310 308 309 308 308 306 311 309 309 310 310 310 311 310 302 302 300 297 296 296 295
318 317 317 316 316 317 319 321 321 317 314 314 315 313 312 309 309 310 311 311 310 308 309 308 304 307 305 306 312 310 309 308 309 310 310 310 310 308 301 301 298 296 295 295 294
318 317 317 316 316 318 320 321 317 316 317 315 314 314 310 308 309 308 310 310 308 307 307 308 306 308 308 306 308 308 309 310 308 309 311 309 309 306 302 299 298 297 296 295 294
318 318 317 316 317 318 320 318 318 316 319 316 315 310 311 309 310 308 309 310 309 309 307 308 307 306 306 306 307 308 310 309 309 309 309 309 309 304 301 299 298 297 296 295 294
318 318 317 317 317 319 320 320 318 316 318 317 315 315 315 310 314 311 307 307 309 309 308 310 311 308 308 308 308 308 308 310 311 309 307 307 308 306 300 299 298 296 295 295 294
319 318 317 317 319 319 320 322 321 315 318 317 317 315 312 312 316 310 308 308 308 310 308 308 309 311 309 309 309 311 309 310 312 310 312 307 312 308 303 300 298 296 295 294 293
320 319 318 317 320 319 320 321 319 314 325 316 314 308 309 317 310 308 306 309 310 310 310 315 311 310 311 311 310 313 308 309 309 308 308 309 309 306 302 302 299 296 295 293 292
322 320 318 318 319 320 320 317 315 321 326 317 307 308 311 308 307 306 307 306 308 310 309 312 307 309 310 308 309 306 308 307 305 306 311 310 311 310 306 305 300 297 295 294 292
322 321 319 318 320 320 315 316 323 325 317 314 310 307 310 307 307 308 308 308 312 313 312 310 309 308 308 308 307 309 311 315 313 311 315 307 308 309 306 303 301 298 295 293 292
322 321 320 319 320 320 313 322 325 323 321 309 308 306 309 306 306 307 307 310 307 309 309 313 316 309 307 309 309 309 311 314 313 311 311 310 314 314 302 298 298 297 295 293 291
322 319 320 319 321 320 318 327 324 322 319 310 310 308 307 307 306 308 307 309 310 306 314 313 317 307 308 307 308 309 311 308 309 296 308 311 309 305 300 298 296 295 293 292 291
320 318 319 320 320 318 322 323 322 320 317 311 316 310 309 312 308 306 307 307 309 306 310 313 316 310 306 306 305 308 307 313 308 308 308 308 310 308 303 300 296 295 294 293 291
316 317 316 320 319 321 325 322 322 319 316 315 318 314 310 314 309 307 308 309 309 308 310 310 314 312 309 309 308 308 310 307 308 305 305 303 305 304 305 300 298 296 295 294 292
313 319 313 318 321 320 324 322 320 321 314 316 315 316 314 314 312 308 310 311 307 309 313 311 311 310 311 307 305 306 308 308 312 309 305 306 309 301 302 300 298 297 296 293 292
315 312 309 314 321 321 317 319 318 315 317 317 317 316 315 315 318 314 313 309 306 311 313 311 311 306 308 308 306 308 306 306 306 304 305 307 308 301 300 299 297 296 295 294 293
309 314 309 310 311 316 316 317 318 313 316 316 317 313 315 317 317 316 311 309 308 309 310 311 309 309 315 309 308 309 308 306 305 305 305 310 308 305 303 301 298 296 295 294 293
306 312 309 311 311 312 312 311 315 315 312 313 314 315 316 316 317 317 310 309 307 308 306 310 311 305 303 304 304 305 307 307 307 309 310 309 308 304 303 302 299 295 294 293 293
305 307 304 308 313 312 312 307 310 310 309 308 312 312 314 312 313 311 310 309 311 305 307 302 305 302 300 302 303 304 304 305 307 304 304 303 304 299 299 298 298 296 294 293 293
297 298 302 307 310 313 313 310 310 311 310 310 309 311 312 313 307 303 305 305 307 307 307 305 303 302 308 297 301 309 305 304 304 302 304 306 305 292 295 295 295 294 292 291 292